Location: Madden
(51.3728°N, 114.3297°W)
Time: 09:10:58
(UTC+00:00)

O/OREOS (USA 219) - Visible Passes

Search period start: 08 December 2023 00:00
Search period end: 18 December 2023 00:00
Orbit: 621 x 646 km, 72.0° (Epoch: 22 May)

Date Brightness Start Highest point End Pass type
(mag) Time Alt. Az. Time Alt. Az. Time Alt. Az.
08 Dec ? 14:03:14 10° N 14:06:10 17° NE 14:09:06 10° E visible
09 Dec ? 14:24:49 10° N 14:28:40 27° NE 14:32:31 10° ESE visible
10 Dec ? 13:08:47 10° NNE 13:10:25 12° NNE 13:12:01 10° NE visible
10 Dec ? 14:46:37 10° NNW 14:51:00 46° NE 14:55:21 10° SE visible
11 Dec ? 13:29:56 10° N 13:33:03 18° NE 13:36:09 10° E visible
12 Dec ? 13:51:34 10° NNW 13:55:31 29° NE 13:59:28 10° ESE visible
13 Dec ? 12:35:23 10° N 12:37:18 12° NNE 12:39:13 10° ENE visible
13 Dec ? 14:13:24 10° NNW 14:17:49 50° NE 14:22:14 10° SE visible
14 Dec ? 12:57:12 12° N 12:59:55 19° NE 13:03:10 10° E visible
14 Dec ? 14:35:24 10° NNW 14:39:57 85° WSW 14:44:30 10° SSE visible
15 Dec ? 13:19:04 14° N 13:22:22 31° NE 13:26:24 10° ESE visible
16 Dec ? 12:03:30 13° NNE 12:04:11 13° NE 12:06:22 10° ENE visible
16 Dec ? 13:40:59 15° NNW 13:44:39 55° ENE 13:49:06 10° SE visible
17 Dec ? 12:25:27 18° NNE 12:26:47 20° NE 12:30:11 10° E visible
17 Dec ? 14:02:55 14° NNW 14:06:46 78° WSW 14:11:18 10° SSE visible
